Florala, AL

7:13 PM CST on December 14, 2017 (GMT -0600)
Florala

Weather History for K0J4 - April, 2014

Change the Weather History Date:

Wednesday, April 16, 2014

  Actual Average (KCEW) Record (KCEW)
Temperature  
Mean Temperature 50 °F -  
Max Temperature 64 °F 80 °F 90 °F (2013)
Min Temperature 36 °F 51 °F 32 °F (2008)
Degree Days  
Heating Degree Days 15    
Moisture  
Dew Point 37 °F    
Average Humidity 60    
Maximum Humidity 82    
Minimum Humidity 34    
Precipitation  
Precipitation 0.00 in - - ()
Sea Level Pressure  
Sea Level Pressure 30.20 in    
Wind  
Wind Speed 6 mph (NE)    
Max Wind Speed 14 mph    
Max Gust Speed 21 mph    
Visibility 10 miles    
Events      
Averages and records for this station are not official NWS values.
T = Trace of Precipitation, MM = Missing Value Source: NWS Daily Summary

Daily Weather History Graph

Daily Weather History Graph

Search for Another Location

Airport or City:

Trip Planner

Search our weather history database for the weather conditions in past years. The results will help you decide how hot, cold, wet, or windy it might be!

Date:

Astronomy

Apr. 16, 2014 Rise Set
Actual Time 6:16 AM CDT 7:14 PM CDT
Civil Twilight 5:51 AM CDT 7:39 PM CDT
Nautical Twilight 5:22 AM CDT 8:08 PM CDT
Astronomical Twilight 4:51 AM CDT 8:38 PM CDT
Moon 8:51 PM CDT (4/16) 7:07 AM CDT (4/16)
Length of Visible Light 13h 47m
Length of Day
12h 57m
Full, 98% of the Moon is Illuminated
Apr 16
Full
Apr 22
Last Quarter
Apr 29
New
May 6
First Quarter
May 14
Full

Hourly Weather History & Observations

Time (CDT) Temp. Windchill Dew Point Humidity Pressure Visibility Wind Dir Wind Speed Gust Speed Precip Events Conditions
12:58 AM 42.1 °F 39.2 °F 36.0 °F 79% 30.17 in 10.0 mi North 4.6 mph - N/A   Clear
1:58 AM 41.0 °F 35.8 °F 35.1 °F 79% 30.16 in 10.0 mi NNE 8.1 mph - N/A   Clear
2:58 AM 39.0 °F 34.0 °F 34.0 °F 82% 30.17 in 10.0 mi NNE 6.9 mph - N/A   Clear
3:58 AM 37.9 °F 33.5 °F 32.0 °F 79% 30.17 in 10.0 mi NNE 5.8 mph - N/A   Clear
4:58 AM 37.0 °F 33.3 °F 30.9 °F 79% 30.18 in 10.0 mi NNE 4.6 mph - N/A   Clear
5:58 AM 36.0 °F 31.1 °F 30.9 °F 82% 30.19 in 10.0 mi NNE 5.8 mph - N/A   Clear
6:58 AM 37.9 °F 32.1 °F 30.9 °F 76% 30.19 in 10.0 mi NE 8.1 mph - N/A   Clear
7:58 AM 43.0 °F 37.2 °F 32.0 °F 65% 30.22 in 10.0 mi NE 10.4 mph - N/A   Clear
8:58 AM 46.9 °F - 32.0 °F 56% 30.24 in 10.0 mi ENE 13.8 mph 20.7 mph N/A   Clear
9:58 AM 50.0 °F - 34.0 °F 54% 30.26 in 10.0 mi East 10.4 mph 17.3 mph N/A   Clear
10:58 AM 54.0 °F - 36.0 °F 51% 30.26 in 10.0 mi Variable 5.8 mph - N/A   Clear
11:58 AM 57.9 °F - 37.9 °F 47% 30.25 in 10.0 mi Variable 6.9 mph - N/A   Clear
12:58 PM 60.1 °F - 39.0 °F 46% 30.22 in 10.0 mi ENE 9.2 mph - N/A   Clear
1:58 PM 62.1 °F - 39.0 °F 43% 30.19 in 10.0 mi NE 8.1 mph 17.3 mph N/A   Clear
2:58 PM 64.9 °F - 39.9 °F 40% 30.17 in 10.0 mi Variable 6.9 mph - N/A   Clear
3:58 PM 64.9 °F - 37.9 °F 37% 30.15 in 10.0 mi East 5.8 mph - N/A   Clear
4:58 PM 64.9 °F - 37.0 °F 36% 30.16 in 10.0 mi East 6.9 mph - N/A   Clear
5:58 PM 64.9 °F - 36.0 °F 34% 30.15 in 10.0 mi East 6.9 mph - N/A   Clear
6:58 PM 61.0 °F - 39.0 °F 44% 30.17 in 10.0 mi Calm Calm - N/A   Clear
7:58 PM 54.0 °F - 45.0 °F 72% 30.20 in 10.0 mi Calm Calm - N/A   Clear
8:58 PM 53.1 °F - 41.0 °F 64% 30.21 in 10.0 mi ENE 3.5 mph - N/A   Clear
9:58 PM 54.0 °F - 39.9 °F 59% 30.21 in 10.0 mi ENE 4.6 mph - N/A   Clear
10:58 PM 51.1 °F - 39.9 °F 66% 30.22 in 10.0 mi ENE 3.5 mph - N/A   Clear
11:58 PM 52.0 °F - 41.0 °F 66% 30.22 in 10.0 mi East 4.6 mph - N/A   Clear